Weather in Rucava

Latvia     56°09′52″N   21°09′40″E
temp.,
°C
wind,
m/s
gust,
m/s
humid.,
%
clouds,
%
prec.,
mm/h
press.,
hPa
HPBL,
m
6 may, thu
thu600:00+5s388797 0.0 996167
03:00+4sse399184 0.1 995179
06:00+6ssw61087100 0.1 994922
09:00+5sw71195100 0.4 993857
12:00+5sw71395100 1.1 9951213
15:00+5wsw81494100 2.2 9971234
18:00+5wsw81591100 1.1 9981265
21:00+5wsw7139099 1.3 9991067
7 may, fri
fri700:00+5sw61193100 0.2 10001004
03:00+4wsw5109583 0.3 1001702
06:00+4wsw479399 0.1 1001512
09:00+5sw358895 0.3 1002695
12:00+6wsw457696 0.3 10031067
15:00+7wsw4575100 0.6 1004981
18:00+6wnw4474100 0.2 1004931
21:00+3wnw2583100 0.2 1005186
8 may, sat
sat800:00+2wnw379350 0.0 1006195
03:00+2wnw389094 0.0 1007238
06:00+2w269652 0.0 1008134
09:00+6w347555 0.0 1009767
12:00+9wnw57575 0.3 10101346
15:00+9wnw57400 0.3 10121300
18:00+8w46540 0.0 1014865
21:00+4wsw36840 0.0 1015165
9 may, sun
sun900:00+3ssw26978 0.0 1015121
03:00+3ssw389711 0.0 1016188
06:00+3ssw3897100 0.0 1016188
09:00+7sw4879100 0.0 1016468
12:00+10ssw5752100 0.0 10171062
15:00+12ssw61051100 0.0 10161651
18:00+8sse51392100 1.1 1014847
21:00+10ssw51188100 1.2 1014421
10 may, mon
mon1000:00+9s3119364 0.0 1014260
03:00+10s41092100 0.0 1015238
06:00+9sse31094100 0.0 1016192
09:00+14s5117414 0.0 1016408
12:00+19s61054100 0.0 10161017
15:00+21sse695421 0.0 10151098
18:00+20sse61159100 0.0 10151077
21:00+16sse41372100 0.0 1015667